STARLINK-31452, 59527

Orbit data source: Space-Track

STARLINK-31452, 59527 is a payload satellite owned by SpaceX/Seattle (US) in LEO that was launched on Wed, 17 Apr 2024 UTC via an FALCON 9 launch vehicle from the Air Force Eastern Test Range (AFETR). Payload-class satellites include a variety of spacecraft equipped with specific instruments for various scientific and technological missions. These include communications satellites like Starlink; space stations such as the ISS; scientific satellites like the Hubble; Earth observation satellites from companies like Planet Labs, Umbra, and HawkEye 360; GPS; miniature CubeSats for education and research; and military/defense satellites.

Loading next visibility...
Identifier
59527, 2024-073S
Orbit
LEO
Country
Flag of USUS
Related business
Manufacturer
SpaceX/Seattle
Mission
Operational Commercial Communications
Bus & Motor
STARLINK V2M, Unknown motor
Mass
730 kg wet, ~700 kg dry
Launch date (UTC)
2024-04-17 (2 years ago)
Launch vehicle
FALCON 9
Launch site
Air Force Eastern Test Range (AFETR)
Object type
Payload
Rocket body
Debris
Shape & HBR
Box + 2 Pan, 17.7 m
Radar Cross Section
33.884 m², Large (>1 m²)

Expand to show TLE details & history
Last TLE update: 2 days ago

TLE from 2 days ago
0 STARLINK-31452
1 59527U 24073S   26170.96261175 -.00001973  00000-0 -62178-4 0  9997
2 59527  43.0003 100.7158 0000745 258.5636 101.5133 15.27593322121819
Epoch: 2026-06-19T23:06Z
TLE epoch observation values (Epoch: 2026-06-19T23:06:09.655Z)
Latitude
0.00007°
Longitude
-154.00842°
Altitude
482.887 km
Speed
7.626 km/s
True Right ascension
06h 42m 51s
True Declination
0° 00' 00"
Sunlit
Object was in daylight at epoch
Visualization orbit readout
Latitude
Unknown
Longitude
Unknown
Altitude
Unknown
Speed
Unknown
Apparent Right ascension
Unknown
Apparent Declination
Unknown
Sunlit
N/A
Visualization observer readout
Local Sidereal Time
14:07:13
Azimuth
Unknown
Elevation
Unknown
Doppler factor
Unknown
Orbital elements
Apogee altitude
485.466 km
Perigee altitude
484.443 km
Semi-major axis
6,863.091 km
Eccentricity
0.00007
Inclination
43.0003°
RAAN
100.7158°
Arg. of periapsis
258.5636°
True anomaly
101.52167°
Mean anomaly
101.5133°
Eccentric anomaly
101.51748°
Mean motion
3.81736 °/min
Orbital period
94.31 mins
BSTAR
-0.000062178
Loading maneuver chart data...
Computing Atmospheric mass density...
Loading historical data...
Loading historical data...
Loading historical data...
Loading historical data...
Loading historical data...
Loading historical data...
Loading historical data...

Documentation

Showing up to 5 results
|